Location: Rio Tanui
(39.9167°N, 8.5167°E)
Time: 02:01:13
(UTC+00:00)

Lacrosse 5 rocket - Pass Details

Date: 08 February 2023
Orbit: 455 x 612 km, 57.0° (Epoch: 01 April)

Event Time Altitude Azimuth Distance (km) Brightness Sun altitude
Rises 18:44:20 0° 299° (WNW) 2,501 5.7 -21.7°
Reaches altitude 10° 18:47:02 10° 277° (W) 1,641 4.9 -22.2°
Maximum altitude 18:49:23 16° 237° (WSW) 1,315 3.9 -22.7°
Drops below altitude 10° 18:51:48 10° 197° (SSW) 1,682 4.0 -23.1°
Enters shadow 18:53:53 - 180° (S) 2,336 4.5 -23.5°
